Lake Charles Regional, LA

9:53 AM CDT on October 21, 2017 (GMT -0500)
Lake Charles Regional

Weather History for KLCH - August, 2013

Change the Weather History Date:

Saturday, August 3, 2013

  Actual Average Record
Temperature  
Mean Temperature 86 °F 83 °F  
Max Temperature 95 °F 92 °F 100 °F (1899)
Min Temperature 76 °F 75 °F 65 °F (1911)
Degree Days  
Heating Degree Days 0 0  
Month to date heating degree days 0 0  
Since 1 June heating degree days 0 0  
Since 1 July heating degree days 0 0  
Cooling Degree Days 21 18  
Month to date cooling degree days 65 54  
Year to date cooling degree days 1669 1625  
Since 1 June cooling degree days 1184 1087  
Growing Degree Days 35 (Base 50)    
Moisture  
Dew Point 74 °F    
Average Humidity 72    
Maximum Humidity 94    
Minimum Humidity 49    
Precipitation  
Precipitation 0.00 in 0.17 in 3.35 in (2014)
Month to date precipitation 0.00 0.51  
Year to date precipitation 35.29 33.87  
Snow  
Snow 0.00 in 0.00 in 0.00 in ()
Month to date snowfall 0.0 0.0  
Since 1 June snowfall 0.0 0.0  
Since 1 July snowfall 0.0 0.0  
Snow Depth 0.00 in    
Sea Level Pressure  
Sea Level Pressure 30.04 in    
Wind  
Wind Speed 5 mph (SSW)    
Max Wind Speed 12 mph    
Max Gust Speed 16 mph    
Visibility 10 miles    
Events      
T = Trace of Precipitation, MM = Missing Value Source: NWS Daily Summary

Daily Weather History Graph

Daily Weather History Graph

Search for Another Location

Airport or City:

Trip Planner

Search our weather history database for the weather conditions in past years. The results will help you decide how hot, cold, wet, or windy it might be!

Date:

Astronomy

Aug. 03, 2013 Rise Set
Actual Time 6:33 AM CDT 8:04 PM CDT
Civil Twilight 6:07 AM CDT 8:30 PM CDT
Nautical Twilight 5:36 AM CDT 9:01 PM CDT
Astronomical Twilight 5:03 AM CDT 9:33 PM CDT
Moon 3:45 AM CDT (8/3) 5:45 PM CDT (8/3)
Length of Visible Light 14h 23m
Length of Day
13h 31m
Waning Crescent, 9% of the Moon is Illuminated
Aug 3
Waning Crescent
Aug 6
New
Aug 14
First Quarter
Aug 20
Full
Aug 28
Last Quarter

Hourly Weather History & Observations

Time (CDT) Temp. Heat Index Dew Point Humidity Pressure Visibility Wind Dir Wind Speed Gust Speed Precip Events Conditions
12:53 AM 80.1 °F 84.5 °F 73.9 °F 81% 30.02 in 10.0 mi Calm Calm - N/A   Clear
1:53 AM 78.1 °F - 73.9 °F 87% 30.01 in 10.0 mi Calm Calm - N/A   Clear
2:53 AM 78.1 °F - 73.9 °F 87% 30.01 in 10.0 mi Calm Calm - N/A   Partly Cloudy
3:53 AM 78.1 °F - 73.9 °F 87% 30.01 in 10.0 mi Calm Calm - N/A   Partly Cloudy
4:53 AM 78.1 °F - 75.0 °F 90% 30.01 in 10.0 mi Calm Calm - N/A   Clear
5:53 AM 77.0 °F - 75.0 °F 94% 30.02 in 9.0 mi SE 3.5 mph - N/A   Clear
6:53 AM 77.0 °F - 73.9 °F 90% 30.03 in 7.0 mi Calm Calm - N/A   Clear
7:53 AM 82.0 °F 90.2 °F 77.0 °F 85% 30.04 in 10.0 mi Calm Calm - N/A   Clear
8:53 AM 86.0 °F 95.1 °F 75.0 °F 70% 30.05 in 10.0 mi SW 6.9 mph - N/A   Clear
9:53 AM 88.0 °F 96.5 °F 73.9 °F 63% 30.06 in 10.0 mi SW 9.2 mph - N/A   Partly Cloudy
10:53 AM 89.1 °F 97.0 °F 73.0 °F 59% 30.09 in 10.0 mi WSW 8.1 mph - N/A   Scattered Clouds
11:53 AM 91.9 °F 98.4 °F 71.1 °F 50% 30.08 in 10.0 mi SSW 8.1 mph - N/A   Partly Cloudy
12:53 PM 93.0 °F 100.7 °F 72.0 °F 50% 30.06 in 10.0 mi South 9.2 mph - N/A   Partly Cloudy
1:53 PM 93.0 °F 100.1 °F 71.1 °F 49% 30.05 in 10.0 mi SW 8.1 mph - N/A   Scattered Clouds
2:53 PM 93.9 °F 103.4 °F 73.0 °F 51% 30.04 in 10.0 mi SW 9.2 mph - N/A   Clear
3:53 PM 93.0 °F 101.9 °F 73.0 °F 52% 30.02 in 10.0 mi SW 10.4 mph - N/A   Clear
4:53 PM 93.0 °F 101.9 °F 73.0 °F 52% 30.02 in 10.0 mi SSW 10.4 mph - N/A   Clear
5:53 PM 91.0 °F 99.3 °F 73.0 °F 55% 30.02 in 10.0 mi SW 8.1 mph - N/A   Clear
6:53 PM 90.0 °F 97.9 °F 73.0 °F 57% 30.02 in 10.0 mi SSW 8.1 mph - N/A   Clear
7:53 PM 87.1 °F 96.3 °F 75.0 °F 67% 30.03 in 10.0 mi SSW 5.8 mph - N/A   Clear
8:53 PM 84.0 °F 91.9 °F 75.0 °F 74% 30.05 in 10.0 mi South 3.5 mph - N/A   Clear
9:53 PM 82.0 °F 89.4 °F 75.9 °F 82% 30.06 in 6.0 mi South 3.5 mph - N/A   Haze
10:53 PM 82.0 °F 89.4 °F 75.9 °F 82% 30.07 in 10.0 mi South 3.5 mph - N/A   Clear
11:53 PM 82.0 °F 88.6 °F 75.0 °F 79% 30.08 in 10.0 mi South 3.5 mph - N/A   Clear